Date String (YYYY-MM-DD hh:mm:ss) UTC,Instrument flags,Ambient pressure (hPa),Sample flow (lpm),Bypass flow (lpm),Sample temperature (°C),Ambient temperature (°C),ASC tube jacket temperature (°C),LED temperature (°C),Box temperature (°C),Sample RH (%),Span deviation,Mass concentration (μg/m³),Mass concentration (μg/m³),Mass concentration (μg/m³)
DateTimeUTC,F1_M11,P_M11,Q1_M11,Q2_M11,T1_M11,T2_M11,T3_M11,T4_M11,T5_M11,U1_M11,ZSPAN_M11,X0_M11,X2_M11,X1_M11
2022-10-16 13:00:00,,0834.0,4.98,0.00,29.7,28.2,00.0,38.5,31.5,17.5,0001.1,0012.34,0008.90,0008.36
2022-10-16 13:01:00,,0834.1,5.01,0.00,29.7,28.2,00.0,38.5,31.5,17.5,0000.8,0012.35,0008.90,0008.36
2022-10-16 13:02:00,,0834.1,5.00,0.00,29.7,28.2,00.0,38.5,31.5,17.5,0000.8,0012.33,0008.91,0008.36
2022-10-16 13:03:00,,0834.1,5.00,0.00,29.7,28.2,00.0,38.5,31.5,17.4,0001.6,0012.94,0008.93,0008.38
2022-10-16 13:04:00,,0834.1,5.00,0.00,29.7,28.2,00.0,38.5,31.4,17.4,0001.2,0014.14,0008.94,0008.38
2022-10-16 13:05:00,,0834.1,5.00,0.00,29.7,28.2,00.0,38.5,31.5,17.4,0001.3,0014.52,0009.00,0008.41
2022-10-16 13:06:00,,0834.1,5.00,0.00,29.7,28.2,00.0,38.5,31.5,17.4,0001.4,0014.52,0009.03,0008.43
2022-10-16 13:07:00,,0834.1,5.00,0.00,29.7,28.2,00.0,38.5,31.5,17.4,0000.6,0014.48,0009.02,0008.45
2022-10-16 13:08:00,,0834.1,4.99,0.00,29.7,28.2,00.0,38.5,31.5,17.4,0000.0,0014.44,0008.99,0008.45
2022-10-16 13:09:00,,0834.2,4.99,0.00,29.7,28.2,00.0,38.5,31.5,17.4,0000.0,0014.40,0008.98,0008.45
2022-10-16 13:10:00,,0834.2,5.00,0.00,29.7,28.2,00.0,38.5,31.5,17.4,0001.5,0014.27,0009.01,0008.48
2022-10-16 13:11:00,,0834.2,5.00,0.00,29.7,28.2,00.0,38.5,31.5,17.4,0003.2,0014.17,0009.05,0008.51
2022-10-16 13:12:00,,0834.2,5.00,0.00,29.7,28.2,00.0,38.5,31.5,17.4,0003.2,0014.17,0009.07,0008.54
2022-10-16 13:13:00,,0834.2,5.00,0.00,29.7,28.2,00.0,38.5,31.5,17.5,0003.1,0014.08,0009.08,0008.55
2022-10-16 13:14:00,,0834.3,5.00,0.00,29.7,28.2,00.0,38.5,31.5,17.5,0002.3,0013.48,0009.05,0008.55
2022-10-16 13:15:00,,0834.3,5.00,0.00,29.7,28.2,00.0,38.5,31.4,17.5,0002.4,0012.69,0009.09,0008.56
2022-10-16 13:16:00,,0834.3,5.00,0.00,29.7,28.2,00.0,38.5,31.4,17.5,0002.2,0012.41,0009.07,0008.55
2022-10-16 13:17:00,,0834.3,5.00,0.00,29.7,28.2,00.0,38.5,31.5,17.5,0002.1,0012.44,0009.07,0008.55
2022-10-16 13:18:00,,0834.3,5.00,0.00,29.7,28.2,00.0,38.5,31.5,17.5,0002.2,0012.53,0009.11,0008.54
2022-10-16 13:19:00,,0834.3,5.00,0.00,29.7,28.2,00.0,38.5,31.5,17.5,0002.0,0013.16,0009.10,0008.53
2022-10-16 13:20:00,,0834.3,5.00,0.00,29.7,28.2,00.0,38.5,31.4,17.5,0001.5,0013.20,0009.08,0008.52
2022-10-16 13:21:00,,0834.3,5.00,0.00,29.7,28.2,00.0,38.5,31.5,17.5,0000.7,0013.32,0009.04,0008.48
2022-10-16 13:22:00,,0834.3,5.00,0.00,29.7,28.2,00.0,38.5,31.5,17.5,0000.2,0013.24,0009.01,0008.46
2022-10-16 13:23:00,,0834.3,5.01,0.00,29.7,28.2,00.0,38.5,31.4,17.5,-000.1,0013.55,0008.96,0008.44
2022-10-16 13:24:00,,0834.3,5.00,0.00,29.7,28.2,00.0,38.5,31.4,17.4,0000.7,0013.89,0008.96,0008.44
2022-10-16 13:25:00,,0834.3,5.01,0.00,29.7,28.2,00.0,38.5,31.5,17.4,0000.9,0014.02,0008.98,0008.43
2022-10-16 13:26:00,,0834.3,5.00,0.00,29.7,28.2,00.0,38.5,31.5,17.5,0000.6,0014.32,0008.94,0008.43
2022-10-16 13:27:00,,0834.3,4.98,0.00,29.7,28.2,00.0,38.5,31.5,17.5,0000.8,0014.50,0008.95,0008.44
2022-10-16 13:28:00,,0834.4,5.00,0.00,29.7,28.2,00.0,38.5,31.4,17.5,0000.9,0014.82,0008.97,0008.43
2022-10-16 13:29:00,,0834.4,5.00,0.00,29.7,28.2,00.0,38.5,31.5,17.5,0001.0,0014.90,0008.94,0008.42
2022-10-16 13:30:00,,0834.4,5.00,0.00,29.7,28.2,00.0,38.5,31.5,17.5,0000.9,0014.28,0008.97,0008.44
2022-10-16 13:31:00,,0834.4,5.00,0.00,29.7,28.2,00.0,38.5,31.4,17.5,0001.4,0014.20,0008.99,0008.45
2022-10-16 13:32:00,,0834.4,5.00,0.00,29.7,28.2,00.0,38.5,31.4,17.5,0001.5,0013.99,0008.99,0008.46
2022-10-16 13:33:00,,0834.4,5.00,0.00,29.7,28.2,00.0,38.5,31.4,17.5,0001.7,0014.00,0009.00,0008.46
2022-10-16 13:34:00,,0834.4,5.01,0.00,29.7,28.2,00.0,38.5,31.5,17.5,0002.1,0013.72,0009.01,0008.46
2022-10-16 13:35:00,,0834.4,5.00,0.00,29.7,28.2,00.0,38.5,31.4,17.5,0002.2,0013.39,0009.00,0008.45
2022-10-16 13:36:00,,0834.4,5.00,0.00,29.7,28.2,00.0,38.5,31.4,17.5,0001.6,0013.36,0008.98,0008.45
2022-10-16 13:37:00,,0834.4,5.00,0.00,29.7,28.2,00.0,38.5,31.4,17.6,0001.8,0013.16,0008.97,0008.44
2022-10-16 13:38:00,,0834.4,4.99,0.00,29.7,28.2,00.0,38.5,31.5,17.5,0001.7,0012.89,0008.96,0008.42
2022-10-16 13:39:00,,0834.4,4.99,0.00,29.7,28.2,00.0,38.5,31.4,17.5,0001.9,0012.59,0008.93,0008.43
2022-10-16 13:40:00,,0834.5,5.00,0.00,29.7,28.2,00.0,38.5,31.4,17.5,0000.4,0012.44,0008.98,0008.45
2022-10-16 13:41:00,,0834.5,5.00,0.00,29.7,28.2,00.0,38.5,31.5,17.5,0001.5,0012.43,0008.97,0008.46
2022-10-16 13:42:00,,0834.5,5.00,0.00,29.7,28.2,00.0,38.5,31.5,17.5,0001.6,0012.49,0008.99,0008.46
2022-10-16 13:43:00,,0834.6,5.00,0.00,29.7,28.2,00.0,38.5,31.4,17.5,0000.8,0012.59,0009.03,0008.47
2022-10-16 13:44:00,,0834.6,5.00,0.00,29.7,28.2,00.0,38.5,31.4,17.5,0001.7,0012.62,0009.04,0008.48
2022-10-16 13:45:00,,0834.7,5.00,0.00,29.7,28.2,00.0,38.5,31.4,17.5,0001.6,0012.67,0009.03,0008.47
2022-10-16 13:46:00,,0834.7,5.00,0.00,29.7,28.2,00.0,38.5,31.5,17.5,0000.8,0013.18,0009.05,0008.48
2022-10-16 13:47:00,,0834.7,4.98,0.00,29.7,28.2,00.0,38.5,31.4,17.5,0000.5,0013.14,0009.06,0008.49
2022-10-16 13:48:00,,0834.7,5.00,0.00,29.7,28.2,00.0,38.5,31.4,17.5,0000.7,0012.89,0009.06,0008.50
2022-10-16 13:49:00,,0834.7,5.00,0.00,29.7,28.2,00.0,38.5,31.4,17.5,0000.1,0012.82,0009.07,0008.52
2022-10-16 13:50:00,,0834.7,5.00,0.00,29.7,28.2,00.0,38.5,31.4,17.5,0000.0,0012.95,0009.07,0008.49
2022-10-16 13:51:00,,0834.7,5.00,0.00,29.7,28.2,00.0,38.5,31.4,17.5,0000.0,0012.88,0009.01,0008.45
2022-10-16 13:52:00,,0834.7,5.00,0.00,29.7,28.2,00.0,38.5,31.4,17.5,0000.0,0012.83,0008.96,0008.40
2022-10-16 13:53:00,,0834.7,5.00,0.00,29.7,28.2,00.0,38.5,31.5,17.6,0000.0,0012.85,0008.90,0008.36
2022-10-16 13:54:00,,0834.7,5.00,0.00,29.7,28.2,00.0,38.5,31.5,17.6,0000.0,0012.76,0008.83,0008.31
2022-10-16 13:55:00,,0834.7,5.00,0.00,29.7,28.2,00.0,38.5,31.4,17.5,0000.0,0013.24,0008.80,0008.27
2022-10-16 13:56:00,,0834.7,5.00,0.00,29.7,28.2,00.0,38.5,31.4,17.5,0000.0,0013.25,0008.78,0008.24
2022-10-16 13:57:00,,0834.7,5.00,0.00,29.7,28.2,00.0,38.5,31.4,17.6,0000.0,0013.41,0008.72,0008.19
2022-10-16 13:58:00,,0834.7,5.00,0.00,29.7,28.2,00.0,38.5,31.5,17.6,0000.0,0013.39,0008.67,0008.13
2022-10-16 13:59:00,,0834.7,5.00,0.00,29.7,28.2,00.0,38.5,31.5,17.5,0000.0,0013.18,0008.62,0008.08
